Time,TemperatureF,DewpointF,PressureIn,WindDirection,WindDirectionDegrees,WindSpeedMPH,WindSpeedGustMPH,Humidity,HourlyPrecipIn,Conditions,Clouds,dailyrainin,SoftwareType,DateUTC
2013-03-01 00:14:00,43.9,43.4,30.21,SW,225,0.0,-999.0,98,-99.99,,,0.00,Acu-Link.com,2013-03-01 08:14:00,
2013-03-01 00:29:00,43.2,42.7,30.20,NE,45,0.0,-999.0,98,-99.99,,,0.00,Acu-Link.com,2013-03-01 08:29:00,
2013-03-01 00:44:00,42.8,42.3,30.20,NE,45,0.0,-999.0,98,-99.99,,,0.00,Acu-Link.com,2013-03-01 08:44:00,
2013-03-01 01:00:00,42.4,41.9,30.20,West,270,0.0,-999.0,98,-99.99,,,0.00,Acu-Link.com,2013-03-01 09:00:00,
2013-03-01 01:20:00,42.8,42.3,30.20,South,180,0.0,-999.0,98,-99.99,,,0.00,Acu-Link.com,2013-03-01 09:20:00,
2013-03-01 01:35:00,42.4,41.9,30.20,SSE,157,0.0,-999.0,98,-99.99,,,0.00,Acu-Link.com,2013-03-01 09:35:00,
2013-03-01 01:50:00,42.3,41.8,30.20,ESE,112,0.0,-999.0,98,-99.99,,,0.00,Acu-Link.com,2013-03-01 09:50:00,
2013-03-01 02:05:00,42.1,41.6,30.20,East,90,0.0,-999.0,98,-99.99,,,0.00,Acu-Link.com,2013-03-01 10:05:00,
2013-03-01 02:20:00,42.1,41.6,30.19,SW,225,0.0,-999.0,98,-99.99,,,0.00,Acu-Link.com,2013-03-01 10:20:00,
2013-03-01 02:35:00,41.9,41.4,30.18,NNE,22,0.0,-999.0,98,-99.99,,,0.00,Acu-Link.com,2013-03-01 10:35:00,
2013-03-01 02:51:00,41.7,41.2,30.19,SE,135,0.0,-999.0,98,-99.99,,,0.00,Acu-Link.com,2013-03-01 10:51:00,
2013-03-01 03:06:00,42.8,42.3,30.18,ENE,67,0.0,-999.0,98,-99.99,,,0.00,Acu-Link.com,2013-03-01 11:06:00,
2013-03-01 03:21:00,45.3,27.3,30.18,ESE,112,0.0,-999.0,49,-99.99,,,0.00,Acu-Link.com,2013-03-01 11:21:00,
2013-03-01 03:36:00,48.2,-48.1,30.18,East,90,0.0,-999.0,1,-99.99,,,0.00,Acu-Link.com,2013-03-01 11:36:00,
2013-03-01 03:51:00,49.5,-47.3,30.18,North,0,0.0,-999.0,1,-99.99,,,0.00,Acu-Link.com,2013-03-01 11:51:00,
2013-03-01 04:06:00,49.5,-47.3,30.18,West,270,0.0,-999.0,1,-99.99,,,0.00,Acu-Link.com,2013-03-01 12:06:00,
2013-03-01 04:21:00,49.3,-47.4,30.17,SSW,202,0.0,-999.0,1,-99.99,,,0.00,Acu-Link.com,2013-03-01 12:21:00,
2013-03-01 04:36:00,47.8,-48.3,30.17,SE,135,0.0,-999.0,1,-99.99,,,0.00,Acu-Link.com,2013-03-01 12:36:00,
2013-03-01 04:51:00,46.8,-48.9,30.17,ESE,112,2.2,-999.0,1,-99.99,,,0.00,Acu-Link.com,2013-03-01 12:51:00,
2013-03-01 05:07:00,47.3,-48.6,30.18,ENE,67,1.7,-999.0,1,-99.99,,,0.00,Acu-Link.com,2013-03-01 13:07:00,
2013-03-01 05:22:00,50.0,-46.9,30.17,South,180,0.0,-999.0,1,-99.99,,,0.00,Acu-Link.com,2013-03-01 13:22:00,
2013-03-01 05:37:00,56.8,-42.8,30.16,WSW,247,3.2,-999.0,1,-99.99,,,0.00,Acu-Link.com,2013-03-01 13:37:00,
2013-03-01 05:52:00,58.6,-41.7,30.17,NNE,22,2.2,-999.0,1,-99.99,,,0.00,Acu-Link.com,2013-03-01 13:52:00,
2013-03-01 06:07:00,57.9,-42.1,30.16,NNE,22,0.0,-999.0,1,-99.99,,,0.00,Acu-Link.com,2013-03-01 14:07:00,
2013-03-01 06:22:00,56.5,-43.0,30.16,SE,135,0.0,-999.0,1,-99.99,,,0.00,Acu-Link.com,2013-03-01 14:22:00,
2013-03-01 06:37:00,54.9,-44.0,30.16,ESE,112,0.0,-999.0,1,-99.99,,,0.00,Acu-Link.com,2013-03-01 14:37:00,
2013-03-01 06:52:00,54.0,-44.5,30.16,NNE,22,0.0,-999.0,1,-99.99,,,0.00,Acu-Link.com,2013-03-01 14:52:00,
2013-03-01 07:07:00,53.4,-44.9,30.17,NNE,22,0.0,-999.0,1,-99.99,,,0.00,Acu-Link.com,2013-03-01 15:07:00,
2013-03-01 07:22:00,54.1,-44.4,30.17,West,270,0.0,-999.0,1,-99.99,,,0.00,Acu-Link.com,2013-03-01 15:22:00,
2013-03-01 07:38:00,61.3,-40.1,30.18,WSW,247,0.0,-999.0,1,-99.99,,,0.00,Acu-Link.com,2013-03-01 15:38:00,
2013-03-01 07:53:00,68.5,-35.7,30.18,NE,45,1.1,-999.0,1,-99.99,,,0.00,Acu-Link.com,2013-03-01 15:53:00,
2013-03-01 08:08:00,73.9,-32.5,30.19,East,90,1.7,-999.0,1,-99.99,,,0.00,Acu-Link.com,2013-03-01 16:08:00,
2013-03-01 08:23:00,77.7,-30.2,30.19,NE,45,0.0,-999.0,1,-99.99,,,0.00,Acu-Link.com,2013-03-01 16:23:00,
2013-03-01 08:38:00,80.6,-28.5,30.19,East,90,1.1,-999.0,1,-99.99,,,0.00,Acu-Link.com,2013-03-01 16:38:00,
2013-03-01 08:53:00,79.3,-29.3,30.19,NNE,22,4.7,-999.0,1,-99.99,,,0.00,Acu-Link.com,2013-03-01 16:53:00,
2013-03-01 09:08:00,79.0,-29.4,30.18,NE,45,8.9,-999.0,1,-99.99,,,0.00,Acu-Link.com,2013-03-01 17:08:00,
2013-03-01 09:23:00,82.4,-27.4,30.18,ESE,112,3.2,-999.0,1,-99.99,,,0.00,Acu-Link.com,2013-03-01 17:23:00,
2013-03-01 09:38:00,83.3,63.8,30.17,NNE,22,4.7,-999.0,52,-99.99,,,0.00,Acu-Link.com,2013-03-01 17:38:00,
2013-03-01 09:54:00,85.3,82.7,30.16,North,0,2.7,-999.0,92,-99.99,,,0.00,Acu-Link.com,2013-03-01 17:54:00,
2013-03-01 10:09:00,84.6,84.0,30.16,NNE,22,5.3,-999.0,98,-99.99,,,0.00,Acu-Link.com,2013-03-01 18:09:00,
2013-03-01 10:24:00,86.2,85.6,30.15,SW,225,2.7,-999.0,98,-99.99,,,0.00,Acu-Link.com,2013-03-01 18:24:00,
2013-03-01 10:39:00,86.4,85.8,30.16,NNE,22,6.3,-999.0,98,-99.99,,,0.00,Acu-Link.com,2013-03-01 18:39:00,
2013-03-01 10:54:00,87.4,86.8,30.15,WNW,292,8.9,-999.0,98,-99.99,,,0.00,Acu-Link.com,2013-03-01 18:54:00,
2013-03-01 11:09:00,89.1,88.5,30.15,ENE,67,5.3,-999.0,98,-99.99,,,0.00,Acu-Link.com,2013-03-01 19:09:00,
2013-03-01 11:24:00,89.2,88.6,30.14,South,180,5.8,-999.0,98,-99.99,,,0.00,Acu-Link.com,2013-03-01 19:24:00,
2013-03-01 11:39:00,88.9,88.3,30.13,NNE,22,4.2,-999.0,98,-99.99,,,0.00,Acu-Link.com,2013-03-01 19:39:00,
2013-03-01 11:54:00,88.7,88.1,30.13,NNE,22,7.3,-999.0,98,-99.99,,,0.00,Acu-Link.com,2013-03-01 19:54:00,
2013-03-01 12:10:00,91.6,91.0,30.11,ENE,67,2.2,-999.0,98,-99.99,,,0.00,Acu-Link.com,2013-03-01 20:10:00,
2013-03-01 12:25:00,92.5,91.8,30.11,NE,45,2.2,-999.0,98,-99.99,,,0.00,Acu-Link.com,2013-03-01 20:25:00,
2013-03-01 12:40:00,90.5,77.6,30.10,West,270,7.8,-999.0,66,-99.99,,,0.00,Acu-Link.com,2013-03-01 20:40:00,
2013-03-01 12:55:00,90.9,89.9,30.09,NW,315,2.7,-999.0,97,-99.99,,,0.00,Acu-Link.com,2013-03-01 20:55:00,
2013-03-01 13:10:00,92.5,91.8,30.09,North,0,2.2,-999.0,98,-99.99,,,0.00,Acu-Link.com,2013-03-01 21:10:00,
2013-03-01 13:25:00,91.4,75.0,30.08,North,0,4.2,-999.0,59,-99.99,,,0.00,Acu-Link.com,2013-03-01 21:25:00,
2013-03-01 13:40:00,92.1,60.5,30.07,NW,315,3.7,-999.0,35,-99.99,,,0.00,Acu-Link.com,2013-03-01 21:40:00,
2013-03-01 13:55:00,90.3,49.7,30.05,East,90,2.7,-999.0,25,-99.99,,,0.00,Acu-Link.com,2013-03-01 21:55:00,
2013-03-01 14:10:00,91.6,29.6,30.05,SSW,202,2.7,-999.0,11,-99.99,,,0.00,Acu-Link.com,2013-03-01 22:10:00,
2013-03-01 14:26:00,93.2,52.1,30.05,NW,315,4.7,-999.0,25,-99.99,,,0.00,Acu-Link.com,2013-03-01 22:26:00,
2013-03-01 14:41:00,91.9,19.1,30.05,ESE,112,2.2,-999.0,7,-99.99,,,0.00,Acu-Link.com,2013-03-01 22:41:00,
2013-03-01 14:56:00,93.0,12.1,30.05,WNW,292,2.7,-999.0,5,-99.99,,,0.00,Acu-Link.com,2013-03-01 22:56:00,
2013-03-01 15:11:00,88.7,-1.9,30.04,SSW,202,6.8,-999.0,3,-99.99,,,0.00,Acu-Link.com,2013-03-01 23:11:00,
2013-03-01 15:27:00,85.6,-25.5,30.04,South,180,2.7,-999.0,1,-99.99,,,0.00,Acu-Link.com,2013-03-01 23:27:00,
2013-03-01 15:43:00,83.7,-26.6,30.04,WSW,247,4.7,-999.0,1,-99.99,,,0.00,Acu-Link.com,2013-03-01 23:43:00,
2013-03-01 15:58:00,85.1,46.3,30.04,SW,225,2.7,-999.0,26,-99.99,,,0.00,Acu-Link.com,2013-03-01 23:58:00,
2013-03-01 16:14:00,83.3,30.8,30.04,SSW,202,5.8,-999.0,15,-99.99,,,0.00,Acu-Link.com,2013-03-02 00:14:00,
2013-03-01 16:29:00,81.7,19.8,30.04,SW,225,2.7,-999.0,10,-99.99,,,0.00,Acu-Link.com,2013-03-02 00:29:00,
2013-03-01 16:44:00,79.9,-28.9,30.04,WSW,247,5.3,-999.0,1,-99.99,,,0.00,Acu-Link.com,2013-03-02 00:44:00,
2013-03-01 16:59:00,78.6,-29.7,30.04,WSW,247,2.2,-999.0,1,-99.99,,,0.00,Acu-Link.com,2013-03-02 00:59:00,
2013-03-01 17:14:00,77.0,-30.6,30.05,South,180,7.3,-999.0,1,-99.99,,,0.00,Acu-Link.com,2013-03-02 01:14:00,
2013-03-01 17:29:00,74.8,-31.9,30.05,SSE,157,3.7,-999.0,1,-99.99,,,0.00,Acu-Link.com,2013-03-02 01:29:00,
2013-03-01 17:44:00,72.5,-33.3,30.05,WSW,247,1.1,-999.0,1,-99.99,,,0.00,Acu-Link.com,2013-03-02 01:44:00,
2013-03-01 18:01:00,70.0,6.0,30.05,SW,225,1.1,-999.0,8,-99.99,,,0.00,Acu-Link.com,2013-03-02 02:01:00,
2013-03-01 18:16:00,68.2,-35.9,30.06,SW,225,1.7,-999.0,1,-99.99,,,0.00,Acu-Link.com,2013-03-02 02:16:00,
2013-03-01 18:31:00,66.7,-36.8,30.06,North,0,0.0,-999.0,1,-99.99,,,0.00,Acu-Link.com,2013-03-02 02:31:00,
2013-03-01 18:46:00,64.9,-17.8,30.06,WSW,247,1.1,-999.0,3,-99.99,,,0.00,Acu-Link.com,2013-03-02 02:46:00,
2013-03-01 19:02:00,63.9,-1.4,30.07,WNW,292,1.7,-999.0,7,-99.99,,,0.00,Acu-Link.com,2013-03-02 03:02:00,
2013-03-01 19:17:00,62.6,19.8,30.08,SW,225,0.0,-999.0,19,-99.99,,,0.00,Acu-Link.com,2013-03-02 03:17:00,
2013-03-01 19:32:00,61.2,33.3,30.07,East,90,0.0,-999.0,35,-99.99,,,0.00,Acu-Link.com,2013-03-02 03:32:00,
2013-03-01 19:47:00,60.1,41.4,30.07,East,90,0.0,-999.0,50,-99.99,,,0.00,Acu-Link.com,2013-03-02 03:47:00,
2013-03-01 20:02:00,58.8,53.3,30.08,ENE,67,0.0,-999.0,82,-99.99,,,0.00,Acu-Link.com,2013-03-02 04:02:00,
2013-03-01 20:17:00,57.7,57.1,30.09,SE,135,0.0,-999.0,98,-99.99,,,0.00,Acu-Link.com,2013-03-02 04:17:00,
2013-03-01 20:32:00,57.0,56.4,30.08,WSW,247,0.0,-999.0,98,-99.99,,,0.00,Acu-Link.com,2013-03-02 04:32:00,
2013-03-01 20:47:00,55.8,55.2,30.08,ENE,67,0.0,-999.0,98,-99.99,,,0.00,Acu-Link.com,2013-03-02 04:47:00,
2013-03-01 21:02:00,55.0,54.4,30.09,SSW,202,0.0,-999.0,98,-99.99,,,0.00,Acu-Link.com,2013-03-02 05:02:00,
2013-03-01 21:18:00,53.8,53.2,30.09,South,180,0.0,-999.0,98,-99.99,,,0.00,Acu-Link.com,2013-03-02 05:18:00,
2013-03-01 21:33:00,53.2,52.6,30.10,East,90,0.0,-999.0,98,-99.99,,,0.00,Acu-Link.com,2013-03-02 05:33:00,
2013-03-01 21:48:00,52.5,52.0,30.10,East,90,0.0,-999.0,98,-99.99,,,0.00,Acu-Link.com,2013-03-02 05:48:00,
2013-03-01 22:03:00,51.4,16.8,30.09,East,90,0.0,-999.0,25,-99.99,,,0.00,Acu-Link.com,2013-03-02 06:03:00,
2013-03-01 22:18:00,51.1,-46.3,30.09,South,180,0.0,-999.0,1,-99.99,,,0.00,Acu-Link.com,2013-03-02 06:18:00,
2013-03-01 22:33:00,50.4,-46.7,30.10,ESE,112,0.0,-999.0,1,-99.99,,,0.00,Acu-Link.com,2013-03-02 06:33:00,
2013-03-01 22:48:00,49.6,-47.2,30.10,East,90,0.0,-999.0,1,-99.99,,,0.00,Acu-Link.com,2013-03-02 06:48:00,
2013-03-01 23:03:00,49.1,-47.5,30.10,ENE,67,0.0,-999.0,1,-99.99,,,0.00,Acu-Link.com,2013-03-02 07:03:00,
2013-03-01 23:18:00,48.4,-47.9,30.09,SSE,157,0.0,-999.0,1,-99.99,,,0.00,Acu-Link.com,2013-03-02 07:18:00,
2013-03-01 23:34:00,47.8,-48.3,30.10,SE,135,0.0,-999.0,1,-99.99,,,0.00,Acu-Link.com,2013-03-02 07:34:00,
2013-03-01 23:49:00,47.5,-48.5,30.10,West,270,0.0,-999.0,1,-99.99,,,0.00,Acu-Link.com,2013-03-02 07:49:00,